Powrót do katalogu

GEESAT 2-07

AktywnyNaukaLEO
NORAD 58911·PAYLOAD·🇨🇳 China

Wystrzelony Feb 2, 2024 z Xichang Satellite Launch Center

Loading…

Następne Przeloty (najbliższe 24 godziny)

TLE

ŚwieżeSource: Space-Track

Epoka: Sep 14, 2026, 22:03 UTC

1 58911U 24023G   26257.91877442  .00000994  00000-0  14712-3 0  9999
2 58911  50.0063 299.1640 0009659  41.9181 318.2495 14.83422253142232

Śledź GEESAT 2-07 w czasie rzeczywistym z AllMySat

Download on the App Store